When you browse on this site, cookies collect data to enhance your experience and personalize the content and advertising you see.
Visit our Privacy Policy to learn more. By continuing to use the site, you agree to this use of cookies and data.
  • In United Kingdom
  • List of Countries
  • For 7 days
  • Water Temperature
  • Satellite Maps
  • Weather Map
  • Weather Widgets
  • user-avatar
    Login

    Hourly Weather Carmarthen

    Today, 20 April, Saturday

    Time Temperature Precipitation Wind Pressure Humidity
    00:00 +11°C° 0 mm 3 mps 770 mmHg 68%
    01:00 +10°C° 0 mm 3 mps 770 mmHg 75%
    02:00 +10°C° 0 mm 2 mps 770 mmHg 81%
    03:00 +10°C° 0 mm 2 mps 770 mmHg 88%
    04:00 +10°C° 0 mm 2 mps 770 mmHg 90%
    05:00 +10°C° 0 mm 2 mps 771 mmHg 92%
    06:00 +12°C° 0 mm 1 mps 771 mmHg 95%
    07:00 +13°C° 0 mm 1 mps 771 mmHg 91%
    08:00 +15°C° 0 mm 1 mps 771 mmHg 88%
    09:00 +16°C° 0 mm 0 mps 771 mmHg 84%
    10:00 +19°C° 0 mm 1 mps 771 mmHg 81%
    11:00 +19°C° 0 mm 1 mps 771 mmHg 78%
    12:00 +20°C° 0 mm 1 mps 770 mmHg 76%
    13:00 +19°C° 0 mm 2 mps 770 mmHg 75%
    14:00 +19°C° 0 mm 2 mps 770 mmHg 74%
    15:00 +20°C° 0 mm 2 mps 770 mmHg 74%
    16:00 +19°C° 0 mm 3 mps 769 mmHg 76%
    17:00 +18°C° 0 mm 3 mps 769 mmHg 79%
    18:00 +17°C° 0 mm 3 mps 768 mmHg 81%
    19:00 +14°C° 0 mm 3 mps 768 mmHg 78%
    20:00 +13°C° 0 mm 3 mps 768 mmHg 76%
    21:00 +12°C° 0 mm 3 mps 768 mmHg 73%
    22:00 +11°C° 0 mm 3 mps 767 mmHg 76%
    23:00 +11°C° 0 mm 4 mps 767 mmHg 79%

    Tomorrow, 21 April, Sunday

    Time Temperature Precipitation Wind Pressure Humidity
    00:00 +10°C° 0 mm 4 mps 766 mmHg 81%
    01:00 +11°C° 0 mm 4 mps 766 mmHg 86%
    02:00 +11°C° 0 mm 4 mps 765 mmHg 91%
    03:00 +11°C° 0 mm 4 mps 765 mmHg 96%
    04:00 +11°C° 0 mm 4 mps 764 mmHg 95%
    05:00 +11°C° 0 mm 4 mps 764 mmHg 95%
    06:00 +11°C° 0 mm 4 mps 763 mmHg 95%
    07:00 +12°C° 0 mm 4 mps 763 mmHg 92%
    08:00 +14°C° 0 mm 4 mps 763 mmHg 88%
    09:00 +15°C° 0 mm 5 mps 762 mmHg 85%
    10:00 +15°C° 0 mm 5 mps 762 mmHg 83%
    11:00 +16°C° 0 mm 5 mps 761 mmHg 81%
    12:00 +16°C° 0 mm 6 mps 760 mmHg 79%
    13:00 +16°C° 0 mm 6 mps 760 mmHg 79%
    14:00 +16°C° 0 mm 6 mps 759 mmHg 80%
    15:00 +16°C° 0 mm 5 mps 759 mmHg 80%
    16:00 +16°C° 0 mm 6 mps 758 mmHg 81%
    17:00 +15°C° 0 mm 6 mps 757 mmHg 82%
    18:00 +15°C° 0 mm 6 mps 757 mmHg 83%
    19:00 +14°C° 0 mm 6 mps 756 mmHg 84%
    20:00 +13°C° 0 mm 6 mps 756 mmHg 85%
    21:00 +13°C° 0 mm 6 mps 756 mmHg 86%
    22:00 +11°C° 0 mm 6 mps 755 mmHg 85%
    23:00 +10°C° 0 mm 7 mps 754 mmHg 84%

    Day after tomorrow, 22 April, Monday

    Time Temperature Precipitation Wind Pressure Humidity
    00:00 +10°C° 0 mm 7 mps 754 mmHg 83%
    01:00 +9°C° 0 mm 7 mps 753 mmHg 82%
    02:00 +9°C° 0 mm 7 mps 753 mmHg 81%
    03:00 +9°C° 0 mm 7 mps 752 mmHg 80%
    04:00 +9°C° 0 mm 7 mps 752 mmHg 83%
    05:00 +9°C° 0 mm 7 mps 752 mmHg 86%
    06:00 +9°C° 0 mm 6 mps 751 mmHg 88%
    07:00 +10°C° 0 mm 7 mps 751 mmHg 85%
    08:00 +11°C° 0 mm 7 mps 751 mmHg 81%
    09:00 +14°C° 0 mm 7 mps 751 mmHg 78%
    10:00 +14°C° 0 mm 7 mps 751 mmHg 74%
    11:00 +15°C° 0 mm 7 mps 750 mmHg 71%
    12:00 +15°C° 0 mm 8 mps 750 mmHg 67%
    13:00 +16°C° 0 mm 7 mps 750 mmHg 67%
    14:00 +16°C° 0 mm 7 mps 749 mmHg 67%
    15:00 +16°C° 0 mm 6 mps 749 mmHg 66%
    16:00 +16°C° 0 mm 5 mps 749 mmHg 70%
    17:00 +15°C° 0 mm 5 mps 748 mmHg 73%
    18:00 +14°C° 0 mm 4 mps 748 mmHg 76%
    19:00 +13°C° 0 mm 4 mps 748 mmHg 78%
    20:00 +12°C° 0 mm 4 mps 749 mmHg 80%
    21:00 +11°C° 0 mm 3 mps 749 mmHg 82%
    22:00 +11°C° 0.1 mm 4 mps 749 mmHg 86%
    23:00 +10°C° 0.1 mm 5 mps 749 mmHg 89%

    23 April, Tuesday

    Time Temperature Precipitation Wind Pressure Humidity
    00:00 +10°C° 0.1 mm 5 mps 748 mmHg 93%
    01:00 +9°C° 0 mm 5 mps 748 mmHg 93%
    02:00 +9°C° 0 mm 5 mps 748 mmHg 93%
    03:00 +9°C° 0 mm 5 mps 748 mmHg 93%
    04:00 +8°C° 0 mm 5 mps 748 mmHg 93%
    05:00 +8°C° 0 mm 5 mps 748 mmHg 92%
    06:00 +8°C° 0 mm 5 mps 748 mmHg 92%
    07:00 +9°C° 0 mm 5 mps 748 mmHg 88%
    08:00 +12°C° 0 mm 4 mps 748 mmHg 84%
    09:00 +13°C° 0 mm 4 mps 748 mmHg 80%
    10:00 +13°C° 0 mm 5 mps 747 mmHg 78%
    11:00 +14°C° 0 mm 5 mps 747 mmHg 76%
    12:00 +15°C° 0 mm 5 mps 747 mmHg 74%
    13:00 +15°C° 0 mm 5 mps 747 mmHg 74%
    14:00 +16°C° 0 mm 5 mps 746 mmHg 74%
    15:00 +16°C° 0 mm 5 mps 746 mmHg 74%
    16:00 +16°C° 0 mm 5 mps 746 mmHg 75%
    17:00 +15°C° 0 mm 5 mps 746 mmHg 77%
    18:00 +15°C° 0 mm 5 mps 746 mmHg 78%
    19:00 +14°C° 0 mm 6 mps 746 mmHg 78%
    20:00 +13°C° 0 mm 6 mps 746 mmHg 78%
    21:00 +11°C° 0 mm 7 mps 747 mmHg 78%
    22:00 +11°C° 0 mm 7 mps 746 mmHg 80%
    23:00 +10°C° 0 mm 7 mps 746 mmHg 81%

    24 April, Wednesday

    Time Temperature Precipitation Wind Pressure Humidity
    00:00 +10°C° 0 mm 8 mps 746 mmHg 83%
    01:00 +10°C° 0 mm 7 mps 746 mmHg 84%
    02:00 +10°C° 0 mm 7 mps 745 mmHg 85%
    03:00 +9°C° 0 mm 7 mps 745 mmHg 86%
    04:00 +9°C° 0 mm 7 mps 745 mmHg 88%
    05:00 +8°C° 0 mm 7 mps 744 mmHg 90%
    06:00 +8°C° 0 mm 7 mps 744 mmHg 92%
    07:00 +9°C° 0 mm 8 mps 744 mmHg 89%
    08:00 +10°C° 0 mm 8 mps 743 mmHg 86%
    09:00 +10°C° 0 mm 8 mps 743 mmHg 83%
    10:00 +11°C° 0 mm 8 mps 743 mmHg 81%
    11:00 +12°C° 0 mm 8 mps 742 mmHg 78%
    12:00 +13°C° 0 mm 8 mps 742 mmHg 76%
    13:00 +12°C° 0.1 mm 9 mps 742 mmHg 81%
    14:00 +11°C° 0.1 mm 9 mps 742 mmHg 86%
    15:00 +11°C° 0.1 mm 10 mps 741 mmHg 91%
    16:00 +9°C° 0 mm 10 mps 741 mmHg 86%
    17:00 +9°C° 0 mm 11 mps 741 mmHg 82%
    18:00 +9°C° 0 mm 11 mps 742 mmHg 77%
    19:00 +9°C° 0 mm 11 mps 742 mmHg 77%
    20:00 +8°C° 0 mm 11 mps 742 mmHg 78%
    21:00 +7°C° 0 mm 10 mps 742 mmHg 78%
    22:00 +7°C° 0 mm 11 mps 742 mmHg 77%
    23:00 +7°C° 0 mm 11 mps 742 mmHg 77%

    25 April, Thursday

    Time Temperature Precipitation Wind Pressure Humidity
    00:00 +7°C° 0 mm 11 mps 743 mmHg 77%
    01:00 +7°C° 0.1 mm 10 mps 743 mmHg 81%
    02:00 +6°C° 0.1 mm 9 mps 742 mmHg 85%
    03:00 +6°C° 0.1 mm 8 mps 742 mmHg 90%
    04:00 +6°C° 0.2 mm 8 mps 743 mmHg 91%
    05:00 +6°C° 0.2 mm 8 mps 743 mmHg 93%
    06:00 +6°C° 0.2 mm 8 mps 743 mmHg 94%
    07:00 +6°C° 0.8 mm 7 mps 743 mmHg 94%
    08:00 +5°C° 0.8 mm 7 mps 743 mmHg 94%
    09:00 +5°C° 0.8 mm 6 mps 744 mmHg 94%
    10:00 +8°C° 0.2 mm 5 mps 744 mmHg 85%
    11:00 +9°C° 0.2 mm 5 mps 745 mmHg 75%
    12:00 +11°C° 0.2 mm 4 mps 745 mmHg 65%
    13:00 +10°C° 0.2 mm 5 mps 745 mmHg 68%
    14:00 +10°C° 0.2 mm 6 mps 746 mmHg 70%
    15:00 +10°C° 0.2 mm 7 mps 746 mmHg 72%
    16:00 +9°C° 0.4 mm 7 mps 747 mmHg 77%
    17:00 +9°C° 0.4 mm 7 mps 748 mmHg 82%
    18:00 +8°C° 0.4 mm 6 mps 748 mmHg 87%
    19:00 +6°C° 0.1 mm 7 mps 749 mmHg 87%
    20:00 +5°C° 0.1 mm 7 mps 750 mmHg 87%
    21:00 +4°C° 0.1 mm 7 mps 751 mmHg 87%
    22:00 +3°C° 0 mm 7 mps 752 mmHg 86%
    23:00 +3°C° 0 mm 7 mps 753 mmHg 84%
    Show more